Location: Calvera
(42.3882°N, 0.6137°E)
Time: 13:19:05
(UTC+00:00)

CZ-2C R/B - Pass Details

Date: 28 October 2020
Orbit: 667 x 785 km, 98.2° (Epoch: 24 November)

Event Time Altitude Azimuth Distance (km) Brightness Sun altitude
Rises 05:41:02 0° 352° (N) 3,208 5.5 -9.0°
Reaches altitude 10° 05:45:14 10° 318° (NW) 2,246 4.5 -8.2°
Maximum altitude 05:46:29 11° 303° (WNW) 2,168 4.3 -8.0°
Drops below altitude 10° 05:47:45 10° 288° (WNW) 2,222 4.2 -7.7°
Enters shadow 05:48:12 - 283° (WNW) 2,272 4.2 -7.7°
